Regional Weather Roundup
Issued by NWS

Home | Current Version | Previous Version | Graphics & Text | Print | Product List | Glossary On
Versions: 1 2 3 4 5 6 7 8 9 10 11 12 13 14 15 16 17 18 19 20 21 22 23 24 25 26 27 28 29 30 31 32 33 34 35 36 37 38 39 40 41 42 43 44 45 46 47 48 49
000
ASUS45 KBOI 012010
RWRID
WEATHER ROUNDUP FOR IDAHO
NATIONAL WEATHER SERVICE BOISE ID
100 PM MST SUN MAR 01 2015

NOTE: "FAIR" INDICATES FEW OR NO CLOUDS BELOW 12000 FEET
WITH NO SIGNIFICANT WEATHER AND/OR OBSTRUCTIONS TO VISIBILITY

IDZ012-014-012100-
SOUTHWEST IDAHO


CITY           SKY/WX    TMP DP  RH WIND       PRES   REMARKS
BOISE          SUNNY     41  17  38 S8G16     30.19F
CALDWELL       SUNNY     45  19  36 S12       30.21F
MOUNTAIN HOME  SUNNY     41  14  33 E8        30.18F
$$

IDZ016-017-012100-
SOUTHCENTRAL IDAHO


CITY           SKY/WX    TMP DP  RH WIND       PRES   REMARKS
BURLEY         SUNNY     39   4  23 NE12      30.13F WCI  32
JEROME         SUNNY     41  -1  17 E9        30.15F
TWIN FALLS     SUNNY     42   3  19 NE13      30.13F
$$

IDZ019>023-012100-
SOUTHEAST IDAHO


CITY           SKY/WX    TMP DP  RH WIND       PRES   REMARKS
IDAHO FALLS    MOSUNNY   37   5  26 N8        30.13F WCI  31
POCATELLO      SUNNY     38  10  31 NE9       30.14F WCI  31
REXBURG        SUNNY     36  -6  16 N7        30.13F WCI  30
$$

IDZ006-010-011-018-031-032-012100-
CENTRAL IDAHO MOUNTAINS


CITY           SKY/WX    TMP DP  RH WIND       PRES   REMARKS
MCCALL         SUNNY     36  14  40 W8        30.09  WCI  30
HAILEY         MOSUNNY   36  19  51 SE10      30.12  WCI  28
STANLEY          N/A     30   8  39 CALM      30.08
SALMON         SUNNY     30   9  40 NW5       30.17F WCI  25
CHALLIS        SUNNY     30   7  37 SW3       30.12F
$$

IDZ002-004-006-007-026-012100-
NORTHERN IDAHO


CITY           SKY/WX    TMP DP  RH WIND       PRES   REMARKS
LEWISTON       MOSUNNY   43  20  39 CALM      30.21F
LOWELL           N/A     47   9  21 CALM      30.21F
COEUR D`ALENE  CLOUDY    37  14  38 CALM      30.17F
MULLAN PASS    PTSUNNY   25   5  42 VRB3      30.05F
$$



USA.gov is the U.S. government's official web portal to all federal, state and local government web resources and services.